Time,TemperatureF,DewpointF,PressureIn,WindDirection,WindDirectionDegrees,WindSpeedMPH,WindSpeedGustMPH,Humidity,HourlyPrecipIn,Conditions,Clouds,dailyrainin,SolarRadiationWatts/m^2,SoftwareType,DateUTC
2013-05-06 00:01:00,46.0,43.0,-100.00,SSE,167,2.0,7.0,89,0.00,,,0.00,0.000000,,2013-05-06 07:01:00,
2013-05-06 00:32:00,48.0,45.0,-100.00,SSW,197,6.0,11.0,91,0.00,,,0.00,0.000000,,2013-05-06 07:32:00,
2013-05-06 00:42:00,48.0,45.0,-100.00,SSW,197,6.0,11.0,91,0.00,,,0.00,0.000000,,2013-05-06 07:42:00,
2013-05-06 00:52:00,48.0,45.0,-100.00,SSW,197,6.0,11.0,91,0.00,,,0.00,0.000000,,2013-05-06 07:52:00,
2013-05-06 01:01:00,48.0,45.0,-100.00,SSW,197,6.0,11.0,91,0.00,,,0.00,0.000000,,2013-05-06 08:01:00,
2013-05-06 01:32:00,46.0,44.0,-100.00,SSE,159,7.0,13.0,92,0.00,,,0.00,0.000000,,2013-05-06 08:32:00,
2013-05-06 01:42:00,46.0,44.0,-100.00,SSE,159,7.0,13.0,92,0.00,,,0.00,0.000000,,2013-05-06 08:42:00,
2013-05-06 01:52:00,46.0,44.0,-100.00,SSE,159,7.0,13.0,92,0.00,,,0.00,0.000000,,2013-05-06 08:52:00,
2013-05-06 02:01:00,46.0,44.0,-100.00,SSE,159,7.0,13.0,92,0.00,,,0.00,0.000000,,2013-05-06 09:01:00,
2013-05-06 02:33:00,46.0,44.0,-100.00,South,183,8.0,13.0,93,0.00,,,0.00,0.000000,,2013-05-06 09:33:00,
2013-05-06 02:43:00,46.0,44.0,-100.00,South,183,8.0,13.0,93,0.00,,,0.00,0.000000,,2013-05-06 09:43:00,
2013-05-06 02:53:00,46.0,44.0,-100.00,South,183,8.0,13.0,93,0.00,,,0.00,0.000000,,2013-05-06 09:53:00,
2013-05-06 03:02:00,46.0,44.0,-100.00,South,183,8.0,13.0,93,0.00,,,0.00,0.000000,,2013-05-06 10:02:00,
2013-05-06 03:33:00,46.0,45.0,-100.00,South,182,7.0,16.0,95,0.01,,,0.01,0.000000,,2013-05-06 10:33:00,
2013-05-06 03:42:00,46.0,45.0,-100.00,South,182,7.0,16.0,95,0.01,,,0.01,0.000000,,2013-05-06 10:42:00,
2013-05-06 03:52:00,46.0,45.0,-100.00,South,182,7.0,16.0,95,0.01,,,0.01,0.000000,,2013-05-06 10:52:00,
2013-05-06 04:02:00,46.0,45.0,-100.00,South,182,7.0,16.0,95,0.01,,,0.01,0.000000,,2013-05-06 11:02:00,
2013-05-06 04:32:00,48.0,47.0,-100.00,South,190,5.0,14.0,96,0.02,,,0.03,0.000000,,2013-05-06 11:32:00,
2013-05-06 04:42:00,48.0,47.0,-100.00,South,190,5.0,14.0,96,0.02,,,0.03,0.000000,,2013-05-06 11:42:00,
2013-05-06 04:52:00,48.0,47.0,-100.00,South,190,5.0,14.0,96,0.02,,,0.03,0.000000,,2013-05-06 11:52:00,
2013-05-06 05:01:00,48.0,47.0,-100.00,South,190,5.0,14.0,96,0.02,,,0.03,0.000000,,2013-05-06 12:01:00,
2013-05-06 05:32:00,48.0,47.0,-100.00,South,190,6.0,12.0,96,0.01,,,-99.99,0.000000,,2013-05-06 12:32:00,
2013-05-06 05:42:00,48.0,47.0,-100.00,South,190,6.0,12.0,96,0.01,,,-99.99,0.000000,,2013-05-06 12:42:00,
2013-05-06 05:52:00,48.0,47.0,-100.00,South,190,6.0,12.0,96,0.01,,,-99.99,0.000000,,2013-05-06 12:52:00,
2013-05-06 06:01:00,48.0,47.0,-100.00,South,190,6.0,12.0,96,0.01,,,-99.99,0.000000,,2013-05-06 13:01:00,
2013-05-06 07:32:00,48.0,47.0,-100.00,WSW,238,9.0,16.0,96,-99.99,,,0.11,10.000000,,2013-05-06 14:32:00,
2013-05-06 07:42:00,48.0,47.0,-100.00,WSW,238,9.0,16.0,96,-99.99,,,0.11,10.000000,,2013-05-06 14:42:00,
2013-05-06 07:52:00,48.0,47.0,-100.00,WSW,238,9.0,16.0,96,-99.99,,,0.11,10.000000,,2013-05-06 14:52:00,
2013-05-06 08:01:00,48.0,47.0,-100.00,WSW,238,9.0,16.0,96,-99.99,,,0.11,10.000000,,2013-05-06 15:01:00,
2013-05-06 08:33:00,48.0,47.0,-100.00,SW,230,7.0,15.0,96,0.03,,,0.14,106.000000,,2013-05-06 15:33:00,
2013-05-06 08:42:00,48.0,47.0,-100.00,SW,230,7.0,15.0,96,0.03,,,0.14,106.000000,,2013-05-06 15:42:00,
2013-05-06 08:53:00,48.0,47.0,-100.00,SW,230,7.0,15.0,96,0.03,,,0.14,106.000000,,2013-05-06 15:53:00,
2013-05-06 09:03:00,48.0,47.0,-100.00,SW,230,7.0,15.0,96,0.03,,,0.14,106.000000,,2013-05-06 16:03:00,
2013-05-06 09:33:00,48.0,47.0,-100.00,SW,228,7.0,19.0,96,0.04,,,0.18,173.000000,,2013-05-06 16:33:00,
2013-05-06 09:42:00,48.0,47.0,-100.00,SW,228,7.0,19.0,96,0.04,,,0.18,173.000000,,2013-05-06 16:42:00,
2013-05-06 09:52:00,48.0,47.0,-100.00,SW,228,7.0,19.0,96,0.04,,,0.18,173.000000,,2013-05-06 16:52:00,
2013-05-06 10:02:00,48.0,47.0,-100.00,SW,228,7.0,19.0,96,0.04,,,0.18,173.000000,,2013-05-06 17:02:00,
2013-05-06 12:32:00,52.0,49.0,-100.00,South,187,10.0,17.0,89,-99.99,,,-99.99,71.000000,,2013-05-06 19:32:00,
2013-05-06 12:42:00,52.0,49.0,-100.00,South,187,10.0,17.0,89,-99.99,,,-99.99,71.000000,,2013-05-06 19:42:00,
2013-05-06 12:52:00,52.0,49.0,-100.00,South,187,10.0,17.0,89,-99.99,,,-99.99,71.000000,,2013-05-06 19:52:00,
2013-05-06 13:01:00,52.0,49.0,-100.00,South,187,10.0,17.0,89,-99.99,,,-99.99,71.000000,,2013-05-06 20:01:00,
2013-05-06 13:32:00,51.0,50.0,-100.00,South,188,10.0,22.0,95,0.02,,,0.25,338.000000,,2013-05-06 20:32:00,
2013-05-06 13:42:00,51.0,50.0,-100.00,South,188,10.0,22.0,95,0.02,,,0.25,338.000000,,2013-05-06 20:42:00,
2013-05-06 13:52:00,51.0,50.0,-100.00,South,188,10.0,22.0,95,0.02,,,0.25,338.000000,,2013-05-06 20:52:00,
2013-05-06 14:01:00,51.0,50.0,-100.00,South,188,10.0,22.0,95,0.02,,,0.25,338.000000,,2013-05-06 21:01:00,
2013-05-06 14:33:00,52.0,51.0,-100.00,South,190,8.0,18.0,95,0.02,,,-99.99,153.000000,,2013-05-06 21:33:00,
2013-05-06 14:43:00,52.0,51.0,-100.00,South,190,8.0,18.0,95,0.02,,,-99.99,153.000000,,2013-05-06 21:43:00,
2013-05-06 14:53:00,52.0,51.0,-100.00,South,190,8.0,18.0,95,0.02,,,-99.99,153.000000,,2013-05-06 21:53:00,
2013-05-06 15:03:00,52.0,51.0,-100.00,South,190,8.0,18.0,95,0.02,,,-99.99,153.000000,,2013-05-06 22:03:00,
2013-05-06 15:33:00,50.0,49.0,-100.00,South,187,9.0,23.0,96,0.04,,,0.31,88.000000,,2013-05-06 22:33:00,
2013-05-06 15:45:00,50.0,49.0,-100.00,South,187,9.0,23.0,96,0.04,,,0.31,88.000000,,2013-05-06 22:45:00,
2013-05-06 15:52:00,50.0,49.0,-100.00,South,187,9.0,23.0,96,0.04,,,0.31,88.000000,,2013-05-06 22:52:00,
2013-05-06 16:02:00,50.0,49.0,-100.00,South,187,9.0,23.0,96,0.04,,,0.31,88.000000,,2013-05-06 23:02:00,
2013-05-06 16:32:00,48.0,47.0,-100.00,SW,221,9.0,22.0,96,0.09,,,0.40,85.000000,,2013-05-06 23:32:00,
2013-05-06 16:42:00,48.0,47.0,-100.00,SW,221,9.0,22.0,96,0.09,,,0.40,85.000000,,2013-05-06 23:42:00,
2013-05-06 16:52:00,48.0,47.0,-100.00,SW,221,9.0,22.0,96,0.09,,,0.40,85.000000,,2013-05-06 23:52:00,
2013-05-06 17:01:00,48.0,47.0,-100.00,SW,221,9.0,22.0,96,0.09,,,0.40,85.000000,,2013-05-07 00:01:00,
2013-05-06 18:32:00,49.0,46.0,-100.00,SW,223,9.0,20.0,89,-99.99,,,0.40,128.000000,,2013-05-07 01:32:00,
2013-05-06 18:42:00,49.0,46.0,-100.00,SW,223,9.0,20.0,89,-99.99,,,0.40,128.000000,,2013-05-07 01:42:00,
2013-05-06 18:52:00,49.0,46.0,-100.00,SW,223,9.0,20.0,89,-99.99,,,0.40,128.000000,,2013-05-07 01:52:00,
2013-05-06 19:02:00,49.0,46.0,-100.00,SW,223,9.0,20.0,89,-99.99,,,0.40,128.000000,,2013-05-07 02:02:00,
2013-05-06 19:32:00,49.0,47.0,-100.00,SSW,207,7.0,18.0,93,0.01,,,0.41,46.000000,,2013-05-07 02:32:00,
2013-05-06 19:42:00,49.0,47.0,-100.00,SSW,207,7.0,18.0,93,0.01,,,0.41,46.000000,,2013-05-07 02:42:00,
2013-05-06 19:52:00,49.0,47.0,-100.00,SSW,207,7.0,18.0,93,0.01,,,0.41,46.000000,,2013-05-07 02:52:00,
2013-05-06 20:01:00,49.0,47.0,-100.00,SSW,207,7.0,18.0,93,0.01,,,0.41,46.000000,,2013-05-07 03:01:00,
2013-05-06 20:32:00,47.0,46.0,-100.00,SSW,197,6.0,13.0,95,0.00,,,0.41,0.000000,,2013-05-07 03:32:00,
2013-05-06 20:43:00,47.0,46.0,-100.00,SSW,197,6.0,13.0,95,0.00,,,0.41,0.000000,,2013-05-07 03:43:00,
2013-05-06 20:53:00,47.0,46.0,-100.00,SSW,197,6.0,13.0,95,0.00,,,0.41,0.000000,,2013-05-07 03:53:00,
2013-05-06 21:02:00,47.0,46.0,-100.00,SSW,197,6.0,13.0,95,0.00,,,0.41,0.000000,,2013-05-07 04:02:00,
2013-05-06 21:33:00,48.0,46.0,-100.00,SW,228,5.0,14.0,94,0.00,,,0.41,0.000000,,2013-05-07 04:33:00,
2013-05-06 21:42:00,48.0,46.0,-100.00,SW,228,5.0,14.0,94,0.00,,,0.41,0.000000,,2013-05-07 04:42:00,
2013-05-06 21:53:00,48.0,46.0,-100.00,SW,228,5.0,14.0,94,0.00,,,0.41,0.000000,,2013-05-07 04:53:00,
2013-05-06 22:02:00,48.0,46.0,-100.00,SW,228,5.0,14.0,94,0.00,,,0.41,0.000000,,2013-05-07 05:02:00,
2013-05-06 22:32:00,48.0,47.0,-100.00,SW,228,8.0,17.0,95,0.00,,,0.41,0.000000,,2013-05-07 05:32:00,
2013-05-06 22:42:00,48.0,47.0,-100.00,SW,228,8.0,17.0,95,0.00,,,0.41,0.000000,,2013-05-07 05:42:00,
2013-05-06 22:52:00,48.0,47.0,-100.00,SW,228,8.0,17.0,95,0.00,,,0.41,0.000000,,2013-05-07 05:52:00,
2013-05-06 23:02:00,48.0,47.0,-100.00,SW,228,8.0,17.0,95,0.00,,,0.41,0.000000,,2013-05-07 06:02:00,
2013-05-06 23:32:00,46.0,45.0,-100.00,SW,218,6.0,15.0,96,0.01,,,0.42,0.000000,,2013-05-07 06:32:00,
2013-05-06 23:42:00,46.0,45.0,-100.00,SW,218,6.0,15.0,96,0.01,,,0.42,0.000000,,2013-05-07 06:42:00,
2013-05-06 23:52:00,46.0,45.0,-100.00,SW,218,6.0,15.0,96,0.01,,,0.42,0.000000,,2013-05-07 06:52:00,